Lid_Strength_Index
5 5 4 3 3 2 4 8 13 6 4 10 12 13 11 8 10 9 10 10 11 12 12 12 12 12 10 8 8 11 10 11 14 12 10 9 11 12 12 16 17 16 17 16
5 5 4 3 2 2 6 8 10 6 5 14 12 10 10 9 9 9 9 10 9 9 11 13 10 10 7 7 9 11 9 13 15 15 12 11 13 13 12 12 14 17 18 16
3 2 2 2 1 1 3 7 12 10 8 8 10 11 10 11 7 7 7 8 8 9 10 9 12 10 8 7 8 7 8 12 14 15 13 12 14 12 12 12 14 15 15 15
2 1 1 1 1 1 3 6 9 8 14 11 9 9 10 10 11 7 6 9 8 9 11 12 12 10 9 8 7 9 9 15 13 12 11 11 11 12 12 13 12 15 13 13
1 0 -0 0 1 -0 5 8 9 7 9 9 9 9 10 10 10 9 10 9 9 9 12 11 11 10 10 11 9 10 9 14 13 14 11 11 12 11 12 12 12 12 12 13
-0 -1 -1 -1 -1 0 6 4 3 6 8 9 10 11 10 9 8 9 8 8 8 10 9 8 8 8 8 9 10 11 12 13 15 17 13 12 15 11 11 11 11 12 13 11
-1 -2 -2 -2 -1 -1 3 3 3 7 10 9 10 9 8 8 8 9 7 6 8 7 6 7 7 8 8 8 8 8 11 12 13 17 15 20 12 9 9 10 11 10 10 10
-2 -2 -2 -2 -2 -1 1 1 3 6 10 8 9 8 8 8 7 8 8 7 6 6 8 11 13 13 12 10 9 9 9 12 15 17 18 14 12 9 10 11 11 9 10 9
-2 -2 -2 -2 -2 -2 0 1 1 4 8 9 7 8 8 10 9 9 8 5 5 7 8 12 19 18 15 14 13 9 9 10 13 15 19 20 12 8 7 8 13 8 9 9
-2 -2 -2 -2 -2 -2 0 2 1 4 8 6 6 8 9 7 8 10 8 8 8 6 11 16 16 15 11 15 14 14 13 13 15 15 16 15 9 9 7 14 13 8 8 8
-2 -2 -2 -2 -2 -1 -0 3 2 5 8 6 5 4 7 7 7 10 8 8 8 9 15 14 14 14 12 13 11 12 13 15 16 14 17 18 9 9 11 9 8 8 8 8
-2 -2 -2 -2 -2 -1 -1 3 1 2 7 6 3 3 2 3 4 6 7 8 9 8 13 13 11 13 12 12 15 10 14 11 14 13 13 9 8 9 8 7 8 8 8 8
-2 -2 -2 -2 -2 -2 -1 2 1 3 5 5 6 6 3 2 3 4 9 9 7 7 7 9 10 15 11 14 13 11 9 8 11 11 9 8 8 8 8 7 8 8 8 8
-2 -2 -2 -2 -2 -1 -1 2 1 2 6 9 8 3 5 3 4 4 4 6 5 5 6 9 11 12 8 11 10 10 9 9 11 11 9 8 8 8 8 8 7 8 8 8
-2 -2 -2 -2 -1 -1 -0 1 1 1 6 11 8 5 4 3 4 4 4 5 6 8 9 10 11 8 9 9 10 11 8 9 11 12 8 8 8 6 6 7 7 7 8 9
-2 -2 -2 -1 -1 -0 1 5 2 0 2 8 10 6 5 4 4 5 4 5 5 6 8 9 8 6 8 12 13 8 7 7 7 8 6 6 5 5 5 7 6 7 8 8
-2 -1 -1 -1 -1 1 4 5 2 -0 1 6 10 10 6 5 4 5 5 5 5 6 7 8 8 8 8 10 13 8 7 7 6 6 6 7 6 6 6 5 6 6 7 7
-1 -1 -1 -1 -1 -0 3 1 -1 1 4 5 10 10 8 4 7 8 5 7 6 6 8 7 9 8 8 12 9 8 7 7 7 7 6 5 5 5 6 6 5 7 8 7
-1 -1 -1 0 2 4 4 -1 -1 1 6 13 11 14 13 5 7 7 7 7 10 6 9 9 8 10 12 9 8 7 7 7 7 6 5 6 6 6 6 6 6 9 8 8
-1 1 3 6 4 -1 0 3 5 5 5 5 9 7 10 7 8 9 9 9 11 12 10 7 10 11 7 6 6 6 6 6 6 8 8 7 8 7 7 6 7 8 8 8
2 4 6 3 -0 3 5 8 9 8 10 7 7 7 9 6 10 11 8 10 10 13 12 11 12 12 8 6 6 6 5 6 6 6 7 7 7 7 7 6 7 8 8 8
2 3 1 2 5 7 9 10 9 10 12 10 9 8 7 8 7 10 10 12 10 14 9 12 14 10 7 7 7 6 5 5 6 6 6 6 6 6 7 7 6 7 8 8
2 5 7 8 9 12 12 15 13 14 9 8 8 9 8 8 7 11 12 16 15 9 13 13 11 8 6 7 7 7 6 5 6 6 5 5 6 7 7 7 7 8 8 8
7 9 13 12 15 13 10 10 12 8 8 8 8 8 9 8 10 10 14 12 13 15 15 13 10 8 7 6 6 6 7 7 7 6 6 5 6 7 7 7 7 8 8 8
7 9 14 13 9 8 7 7 7 6 6 7 8 8 9 10 11 13 14 15 16 14 13 12 9 8 8 6 7 7 7 7 7 6 7 6 6 6 7 7 7 8 7 8
6 8 14 9 10 10 8 8 9 6 6 6 7 10 10 11 11 12 14 15 14 12 11 9 8 8 7 7 7 7 7 7 8 7 6 6 7 6 6 6 6 7 7 7
9 10 8 9 9 9 8 7 8 5 8 12 10 12 14 12 16 13 12 13 10 9 9 8 6 8 7 7 7 7 7 7 8 8 8 7 6 6 6 7 7 7 7 7